WZZ5EQ EPMO-LIEA

Flight info

Callsign WZZ5EQ
Flight time N/A
Altitude 36000
Route EVINA4J EVINA DCT LIGDI DCT SKARY DCT MAREG DCT NIGSI DCT GBG DCT LAPNA/N0448F350 DCT MAMAR DCT BATOX DCT ROMPO/N0361F190 L5 MINKA MINKA1Y
Aircraft A21N/M-SDE3FGHIRWY/LB1

Departure

Time N/A
Airport Warsaw Modlin Airport (EPMO)

Arrival

Time 2026-05-07 15:03
Airport Alghero-Fertilia Airport (LIEA)
Time Latitude Longitude Altitude Speed Heading
2026-05-07 13:35 45.71629 14.68952 34990 ft 391 kts 218°
2026-05-07 13:36 45.69378 14.66715 34978 ft 392 kts 218°
2026-05-07 13:36 45.64932 14.62298 34966 ft 392 kts 218°
2026-05-07 13:37 45.60464 14.57868 34968 ft 392 kts 218°
2026-05-07 13:37 45.55999 14.53449 35010 ft 393 kts 218°
2026-05-07 13:38 45.51496 14.49000 34997 ft 393 kts 218°
2026-05-07 13:38 45.47010 14.44577 34985 ft 392 kts 218°
2026-05-07 13:39 45.42543 14.40180 35017 ft 394 kts 218°
2026-05-07 13:39 45.38059 14.35777 35012 ft 393 kts 218°
2026-05-07 13:40 45.33553 14.31362 35048 ft 393 kts 218°
2026-05-07 13:40 45.29062 14.26971 35015 ft 393 kts 218°
2026-05-07 13:41 45.24565 14.22578 35042 ft 393 kts 218°
2026-05-07 13:41 45.20056 14.18189 35013 ft 393 kts 218°
2026-05-07 13:42 45.15573 14.13827 34998 ft 394 kts 218°
2026-05-07 13:42 45.11063 14.09450 35001 ft 394 kts 218°
2026-05-07 13:43 45.06543 14.05068 35024 ft 395 kts 218°
2026-05-07 13:43 45.02009 14.00687 35019 ft 394 kts 218°
2026-05-07 13:44 44.97514 13.96346 35034 ft 395 kts 218°
2026-05-07 13:44 44.92996 13.92001 35034 ft 395 kts 218°
2026-05-07 13:45 44.88461 13.87640 35031 ft 395 kts 218°
2026-05-07 13:45 44.83917 13.83284 35034 ft 395 kts 219°
2026-05-07 13:46 44.79407 13.78967 35033 ft 395 kts 219°
2026-05-07 13:46 44.74871 13.74630 35029 ft 395 kts 218°
2026-05-07 13:47 44.74097 13.73889 35034 ft 395 kts 218°
2026-05-07 13:47 44.65514 13.65714 35010 ft 394 kts 219°
2026-05-07 13:48 44.60990 13.61417 35010 ft 394 kts 218°
2026-05-07 13:48 44.56437 13.57100 34987 ft 394 kts 219°
2026-05-07 13:49 44.51913 13.52821 34993 ft 393 kts 218°
2026-05-07 13:49 44.47414 13.48570 34983 ft 394 kts 219°
2026-05-07 13:50 44.42871 13.44290 34979 ft 394 kts 219°
2026-05-07 13:50 44.38344 13.40030 34976 ft 394 kts 219°
2026-05-07 13:51 44.33777 13.35740 34981 ft 394 kts 219°
2026-05-07 13:51 44.29246 13.31492 34983 ft 395 kts 218°
2026-05-07 13:52 44.24703 13.27240 34982 ft 395 kts 218°
2026-05-07 13:52 44.20156 13.22997 34977 ft 394 kts 218°
2026-05-07 13:53 44.15600 13.18752 34985 ft 395 kts 218°
2026-05-07 13:53 44.11038 13.14507 34978 ft 395 kts 219°
2026-05-07 13:54 44.06502 13.10294 34978 ft 395 kts 219°
2026-05-07 13:54 44.01934 13.06060 34980 ft 395 kts 219°
2026-05-07 13:55 43.97386 13.01849 34980 ft 394 kts 218°
2026-05-07 13:55 43.92818 12.97635 34988 ft 394 kts 218°
2026-05-07 13:56 43.88276 12.93449 34987 ft 395 kts 218°
2026-05-07 13:56 43.83696 12.89236 34986 ft 395 kts 219°
2026-05-07 13:57 43.79125 12.85038 34987 ft 397 kts 219°
2026-05-07 13:57 43.74533 12.80829 34978 ft 395 kts 219°
2026-05-07 13:58 43.69955 12.76642 34997 ft 396 kts 219°
2026-05-07 13:58 43.65377 12.72461 35009 ft 396 kts 218°
2026-05-07 13:59 43.60786 12.68280 34997 ft 397 kts 219°
2026-05-07 13:59 43.56188 12.64096 34996 ft 398 kts 219°
2026-05-07 14:00 43.51553 12.59887 34997 ft 398 kts 219°
2026-05-07 14:00 43.46926 12.55694 34997 ft 400 kts 219°
2026-05-07 14:01 43.42300 12.51507 35004 ft 399 kts 219°
2026-05-07 14:01 43.37687 12.47343 35007 ft 399 kts 219°
2026-05-07 14:02 43.33034 12.43151 34994 ft 399 kts 218°
2026-05-07 14:02 43.28430 12.39010 34999 ft 398 kts 219°
2026-05-07 14:03 43.23783 12.34837 35001 ft 399 kts 218°
2026-05-07 14:03 43.19161 12.30697 35021 ft 400 kts 218°
2026-05-07 14:04 43.14483 12.26512 34985 ft 401 kts 218°
2026-05-07 14:04 43.09831 12.22356 34996 ft 401 kts 218°
2026-05-07 14:05 43.05158 12.18193 34987 ft 399 kts 218°
2026-05-07 14:05 43.00514 12.14059 35006 ft 399 kts 218°
2026-05-07 14:06 42.95866 12.09934 34975 ft 399 kts 218°
2026-05-07 14:06 42.91228 12.05821 34989 ft 399 kts 218°
2026-05-07 14:07 42.86563 12.01696 34968 ft 399 kts 218°
2026-05-07 14:07 42.81930 11.97603 34970 ft 399 kts 218°
2026-05-07 14:08 42.77295 11.93519 34982 ft 397 kts 218°
2026-05-07 14:08 42.72665 11.89444 34987 ft 398 kts 218°
2026-05-07 14:09 42.68042 11.85381 35000 ft 397 kts 218°
2026-05-07 14:09 42.63400 11.81312 35009 ft 396 kts 218°
2026-05-07 14:10 42.58791 11.77278 35014 ft 395 kts 218°
2026-05-07 14:10 42.54186 11.73254 34993 ft 394 kts 218°
2026-05-07 14:11 42.49588 11.69249 34990 ft 393 kts 218°
2026-05-07 14:11 42.45023 11.65272 34984 ft 393 kts 218°
2026-05-07 14:12 42.40426 11.61277 34989 ft 393 kts 219°
2026-05-07 14:12 42.35844 11.57305 34997 ft 393 kts 219°
2026-05-07 14:13 42.31268 11.53338 34984 ft 392 kts 218°
2026-05-07 14:13 42.26690 11.49383 34980 ft 389 kts 218°
2026-05-07 14:14 42.22133 11.45450 34977 ft 389 kts 219°
2026-05-07 14:14 42.17596 11.41543 34979 ft 388 kts 218°
2026-05-07 14:15 42.13045 11.37629 34972 ft 387 kts 218°
2026-05-07 14:15 42.08521 11.33743 34981 ft 388 kts 218°
2026-05-07 14:16 42.03970 11.29842 34978 ft 387 kts 218°
2026-05-07 14:16 41.99437 11.25967 34977 ft 387 kts 218°
2026-05-07 14:17 41.94912 11.22102 34972 ft 387 kts 218°
2026-05-07 14:17 41.90390 11.18249 34962 ft 386 kts 218°
2026-05-07 14:18 41.85898 11.14353 34989 ft 384 kts 220°
2026-05-07 14:18 41.81692 11.10027 34955 ft 382 kts 225°
2026-05-07 14:19 41.77846 11.05216 34998 ft 379 kts 229°
2026-05-07 14:19 41.74357 10.99953 34973 ft 377 kts 233°
2026-05-07 14:20 41.71020 10.94610 34963 ft 376 kts 233°
2026-05-07 14:20 41.67676 10.89247 34969 ft 376 kts 233°
2026-05-07 14:21 41.64334 10.83895 34962 ft 374 kts 233°
2026-05-07 14:21 41.61006 10.78569 34973 ft 375 kts 233°
2026-05-07 14:22 41.57678 10.73238 34958 ft 374 kts 233°
2026-05-07 14:22 41.54351 10.67925 34971 ft 373 kts 233°
2026-05-07 14:23 41.51027 10.62626 34960 ft 374 kts 233°
2026-05-07 14:23 41.47713 10.57353 34962 ft 372 kts 233°
2026-05-07 14:24 41.44381 10.52064 34970 ft 372 kts 233°
2026-05-07 14:24 41.41057 10.46797 34976 ft 372 kts 233°
2026-05-07 14:25 41.37734 10.41536 34944 ft 371 kts 233°
2026-05-07 14:25 41.34433 10.36323 34982 ft 371 kts 233°
2026-05-07 14:26 41.31107 10.31076 34971 ft 372 kts 233°
2026-05-07 14:26 41.27774 10.25829 34951 ft 371 kts 232°
2026-05-07 14:27 41.24593 10.20505 34972 ft 369 kts 236°
2026-05-07 14:27 41.21799 10.14812 34829 ft 365 kts 240°
2026-05-07 14:27 41.20592 10.11929 34602 ft 359 kts 243°
2026-05-07 14:28 41.19486 10.08972 34376 ft 359 kts 245°
2026-05-07 14:28 41.18478 10.05937 34125 ft 361 kts 247°
2026-05-07 14:28 41.17559 10.02861 33874 ft 362 kts 248°
2026-05-07 14:28 41.16634 9.99760 33508 ft 364 kts 248°
2026-05-07 14:29 41.15694 9.96612 33012 ft 367 kts 248°
2026-05-07 14:29 41.14762 9.93476 32391 ft 368 kts 248°
2026-05-07 14:29 41.13838 9.90359 31960 ft 365 kts 248°
2026-05-07 14:29 41.12917 9.87259 31534 ft 362 kts 248°
2026-05-07 14:30 41.11991 9.84139 31090 ft 359 kts 248°
2026-05-07 14:30 41.11092 9.81102 30687 ft 357 kts 248°
2026-05-07 14:30 41.10182 9.78044 30248 ft 354 kts 248°
2026-05-07 14:30 41.09296 9.75060 29826 ft 352 kts 248°
2026-05-07 14:31 41.08393 9.72061 29401 ft 349 kts 248°
2026-05-07 14:31 41.07494 9.69077 28959 ft 347 kts 248°
2026-05-07 14:31 41.06607 9.66134 28535 ft 344 kts 248°
2026-05-07 14:31 41.05732 9.63243 28109 ft 341 kts 248°
2026-05-07 14:32 41.04850 9.60329 27703 ft 339 kts 249°
2026-05-07 14:32 41.03987 9.57479 27283 ft 336 kts 248°
2026-05-07 14:32 41.03125 9.54634 26876 ft 334 kts 249°
2026-05-07 14:32 41.02263 9.51798 26460 ft 331 kts 249°
2026-05-07 14:33 41.01405 9.48971 26042 ft 329 kts 249°
2026-05-07 14:33 41.00556 9.46172 25624 ft 326 kts 249°
2026-05-07 14:33 40.99717 9.43416 25210 ft 324 kts 249°
2026-05-07 14:33 40.98882 9.40672 24791 ft 323 kts 249°
2026-05-07 14:34 40.98044 9.37933 24366 ft 321 kts 249°
2026-05-07 14:34 40.97213 9.35214 23947 ft 320 kts 249°
2026-05-07 14:34 40.96380 9.32486 23529 ft 319 kts 249°
2026-05-07 14:34 40.95550 9.29769 23101 ft 318 kts 249°
2026-05-07 14:35 40.94727 9.27075 22685 ft 318 kts 249°
2026-05-07 14:35 40.93908 9.24390 22264 ft 317 kts 248°
2026-05-07 14:35 40.93086 9.21699 21854 ft 317 kts 248°
2026-05-07 14:35 40.92267 9.19023 21455 ft 316 kts 248°
2026-05-07 14:36 40.91444 9.16344 21040 ft 316 kts 248°
2026-05-07 14:36 40.90614 9.13643 20624 ft 316 kts 247°
2026-05-07 14:36 40.89794 9.10980 20208 ft 316 kts 247°
2026-05-07 14:36 40.88966 9.08284 19790 ft 315 kts 247°
2026-05-07 14:37 40.88140 9.05610 19404 ft 315 kts 247°
2026-05-07 14:37 40.86493 9.00278 18577 ft 316 kts 246°
2026-05-07 14:37 40.85661 8.97587 18159 ft 316 kts 246°
2026-05-07 14:38 40.84832 8.94916 17754 ft 316 kts 246°
2026-05-07 14:38 40.84007 8.92257 17347 ft 316 kts 246°
2026-05-07 14:38 40.83178 8.89588 16929 ft 316 kts 246°
2026-05-07 14:38 40.82348 8.86915 16509 ft 316 kts 246°
2026-05-07 14:39 40.81508 8.84226 16125 ft 316 kts 246°
2026-05-07 14:39 40.80662 8.81560 15700 ft 316 kts 246°
2026-05-07 14:39 40.79819 8.78914 15297 ft 316 kts 246°
2026-05-07 14:39 40.78972 8.76263 14846 ft 316 kts 246°
2026-05-07 14:40 40.78117 8.73583 14410 ft 316 kts 246°
2026-05-07 14:40 40.77267 8.70919 14000 ft 316 kts 246°
2026-05-07 14:40 40.76419 8.68261 13574 ft 316 kts 246°
2026-05-07 14:40 40.75570 8.65603 13153 ft 316 kts 246°
2026-05-07 14:41 40.74725 8.62960 12704 ft 315 kts 246°
2026-05-07 14:41 40.73873 8.60299 12284 ft 313 kts 246°
2026-05-07 14:41 40.73024 8.57660 11881 ft 312 kts 246°
2026-05-07 14:41 40.72187 8.55061 11484 ft 312 kts 246°
2026-05-07 14:42 40.71343 8.52434 11123 ft 311 kts 246°
2026-05-07 14:42 40.70504 8.49824 10636 ft 311 kts 246°
2026-05-07 14:42 40.69659 8.47205 10246 ft 310 kts 246°
2026-05-07 14:42 40.68821 8.44616 10027 ft 300 kts 246°
2026-05-07 14:43 40.68024 8.42145 9958 ft 286 kts 246°
2026-05-07 14:43 40.67259 8.39777 9662 ft 283 kts 246°
2026-05-07 14:43 40.66470 8.37416 9261 ft 283 kts 241°
2026-05-07 14:43 40.65185 8.35515 8773 ft 282 kts 210°
2026-05-07 14:44 40.63335 8.34803 8292 ft 281 kts 182°
2026-05-07 14:44 40.61371 8.34703 7797 ft 284 kts 181°
2026-05-07 14:44 40.59395 8.34549 7322 ft 286 kts 183°
2026-05-07 14:44 40.57428 8.34323 6909 ft 285 kts 184°
2026-05-07 14:45 40.55450 8.34055 6517 ft 283 kts 185°
2026-05-07 14:45 40.53509 8.33774 6146 ft 281 kts 184°
2026-05-07 14:45 40.51584 8.33481 5947 ft 273 kts 186°
2026-05-07 14:45 40.49726 8.32919 5945 ft 275 kts 196°
2026-05-07 14:46 40.47945 8.31977 5945 ft 276 kts 202°
2026-05-07 14:46 40.46193 8.30920 5944 ft 275 kts 203°
2026-05-07 14:46 40.44524 8.29898 5934 ft 260 kts 203°
2026-05-07 14:46 40.42942 8.28892 5925 ft 244 kts 210°
2026-05-07 14:47 40.41821 8.27271 5911 ft 241 kts 248°
2026-05-07 14:47 40.41704 8.25144 5830 ft 233 kts 288°
2026-05-07 14:47 40.42372 8.23274 5655 ft 225 kts 300°
2026-05-07 14:47 40.43148 8.21480 5307 ft 226 kts 299°
2026-05-07 14:48 40.43995 8.19740 4848 ft 224 kts 319°
2026-05-07 14:48 40.45323 8.18804 4399 ft 218 kts 354°
2026-05-07 14:48 40.46799 8.19011 3963 ft 209 kts 24°
2026-05-07 14:48 40.48103 8.19825 3511 ft 208 kts 30°
2026-05-07 14:49 40.49399 8.20720 2945 ft 209 kts 29°
2026-05-07 14:49 40.50677 8.21542 2476 ft 203 kts 27°
2026-05-07 14:49 40.51936 8.22308 2170 ft 190 kts 26°
2026-05-07 14:49 40.53097 8.23001 1921 ft 176 kts 26°
2026-05-07 14:50 40.54160 8.23635 1694 ft 159 kts 26°
2026-05-07 14:50 40.55112 8.24207 1485 ft 145 kts 26°
2026-05-07 14:50 40.55999 8.24740 1332 ft 138 kts 26°
2026-05-07 14:50 40.56870 8.25262 1145 ft 137 kts 26°
2026-05-07 14:51 40.57739 8.25783 979 ft 137 kts 26°
2026-05-07 14:51 40.58606 8.26311 810 ft 137 kts 25°
2026-05-07 14:51 40.59474 8.26829 639 ft 137 kts 25°
2026-05-07 14:51 40.60347 8.27352 451 ft 136 kts 25°
2026-05-07 14:52 40.61204 8.27876 265 ft 136 kts 25°
2026-05-07 14:52 40.62058 8.28385 101 ft 135 kts 25°
2026-05-07 14:52 40.62868 8.28867 187 ft 120 kts 24°
2026-05-07 14:52 40.63657 8.29328 737 ft 132 kts 25°
2026-05-07 14:53 40.64496 8.29833 1476 ft 136 kts 27°
2026-05-07 14:53 40.65329 8.30337 2148 ft 136 kts 28°
2026-05-07 14:53 40.66097 8.31129 2470 ft 150 kts 65°
2026-05-07 14:53 40.66050 8.32529 2797 ft 170 kts 120°
2026-05-07 14:54 40.65023 8.33456 3028 ft 203 kts 164°
2026-05-07 14:54 40.63515 8.33559 3061 ft 227 kts 180°
2026-05-07 14:54 40.61914 8.33431 3088 ft 231 kts 181°
2026-05-07 14:54 40.60298 8.33317 3100 ft 232 kts 179°
2026-05-07 14:55 40.58690 8.33257 3105 ft 232 kts 178°
2026-05-07 14:55 40.57088 8.33236 3141 ft 234 kts 177°
2026-05-07 14:55 40.55432 8.33238 3608 ft 236 kts 177°
2026-05-07 14:55 40.53806 8.33245 3935 ft 232 kts 177°
2026-05-07 14:56 40.52183 8.33254 4002 ft 232 kts 177°
2026-05-07 14:56 40.50590 8.33130 4003 ft 232 kts 187°
2026-05-07 14:56 40.49004 8.32567 4006 ft 234 kts 199°
2026-05-07 14:56 40.47504 8.31713 4009 ft 235 kts 202°
2026-05-07 14:57 40.46017 8.30806 4006 ft 233 kts 202°
2026-05-07 14:57 40.44565 8.29915 3890 ft 226 kts 202°
2026-05-07 14:57 40.43162 8.29043 3758 ft 219 kts 207°
2026-05-07 14:57 40.42078 8.27656 3600 ft 221 kts 245°
2026-05-07 14:58 40.41846 8.25692 3481 ft 221 kts 281°
2026-05-07 14:58 40.42394 8.23816 3382 ft 221 kts 297°
2026-05-07 14:58 40.43091 8.21983 3253 ft 223 kts 297°
2026-05-07 14:58 40.43785 8.20161 3120 ft 223 kts 301°
2026-05-07 14:59 40.44863 8.18760 2927 ft 214 kts 342°
2026-05-07 14:59 40.46282 8.18702 2845 ft 204 kts 21°
2026-05-07 14:59 40.47588 8.19481 2812 ft 205 kts 30°
2026-05-07 14:59 40.48857 8.20372 2751 ft 205 kts 30°
2026-05-07 15:00 40.50136 8.21212 2533 ft 204 kts 28°
2026-05-07 15:00 40.51434 8.22009 2280 ft 201 kts 26°
2026-05-07 15:00 40.52684 8.22756 2095 ft 192 kts 26°
2026-05-07 15:00 40.53880 8.23470 1804 ft 181 kts 26°
2026-05-07 15:01 40.54995 8.24139 1499 ft 170 kts 26°
2026-05-07 15:01 40.56027 8.24770 1301 ft 155 kts 26°
2026-05-07 15:01 40.56961 8.25316 1119 ft 140 kts 26°
2026-05-07 15:01 40.57844 8.25839 936 ft 137 kts 26°
2026-05-07 15:02 40.58703 8.26368 766 ft 136 kts 26°
2026-05-07 15:02 40.59558 8.26884 608 ft 136 kts 25°
2026-05-07 15:02 40.60416 8.27401 436 ft 136 kts 25°
2026-05-07 15:02 40.61275 8.27912 262 ft 136 kts 25°
2026-05-07 15:03 40.62141 8.28439 86 ft 135 kts 25°
2026-05-07 15:03 40.62918 8.28903 80 ft 103 kts 24°
2026-05-07 15:03 40.63420 8.29204 82 ft 57 kts 25°
2026-05-07 15:03 40.63685 8.29360 84 ft 25 kts 24°
2026-05-07 15:04 40.63789 8.29506 84 ft 16 kts 55°
2026-05-07 15:04 40.63820 8.29593 86 ft 8 kts 102°
2026-05-07 15:04 40.63786 8.29641 87 ft 7 kts 165°
2026-05-07 15:04 40.63730 8.29634 87 ft 8 kts 198°
2026-05-07 15:05 40.63666 8.29598 86 ft 11 kts 204°
2026-05-07 15:05 40.63584 8.29548 85 ft 13 kts 204°
2026-05-07 15:05 40.63490 8.29492 84 ft 15 kts 204°
2026-05-07 15:05 40.63397 8.29450 84 ft 13 kts 176°
2026-05-07 15:06 40.63305 8.29474 84 ft 13 kts 169°
2026-05-07 15:06 40.63222 8.29470 84 ft 11 kts 204°
2026-05-07 15:06 40.63164 8.29437 83 ft 6 kts 190°
2026-05-07 15:06 40.63136 8.29464 84 ft 2 kts 119°
2026-05-07 15:07 40.63131 8.29476 84 ft 0 kts 114°